DW2465 Weather Reports


Display with metric or nautical units.
time (UTC)temp
F
wind
direction
speed
MPH
gust
MPH
rain 1hr
in
rain 24hr
in
rain mn
in
humidity
%
barometer
mb
20260508083030 45 205 0.0 0.0 0.00 0.00 0.00 44 1007.7
20260508081532 45 225 0.0 0.0 0.00 0.00 0.00 44 1007.7
20260508080027 45 163 0.0 0.0 0.00 0.00 0.00 45 1007.9
20260508074526 45 201 0.0 0.0 0.00 0.00 0.00 45 1007.9
20260508073021 45 199 0.0 0.0 0.00 0.00 0.00 45 1008.1
20260508071520 45 186 0.0 0.0 0.00 0.00 0.00 46 1008.2
20260508070019 45 181 0.0 0.0 0.00 0.00 0.00 46 1008.4
20260508064514 45 205 0.0 0.0 0.00 0.00 0.00 47 1008.4
20260508063013 46 214 0.0 0.0 0.00 0.00 0.00 46 1008.5
20260508061512 46 184 0.0 0.0 0.00 0.00 0.00 47 1008.6
20260508060010 46 219 0.0 0.0 0.00 0.00 0.00 46 1008.7
20260508054539 46 219 0.0 0.0 0.00 0.00 0.00 46 1008.6
20260508053039 46 241 0.0 0.0 0.00 0.00 0.00 47 1008.7
20260508051540 46 281 0.0 0.0 0.00 0.00 0.00 50 1008.7
20260508050034 47 281 0.0 0.0 0.00 0.00 0.00 47 1008.9
20260508044532 47 281 0.0 0.0 0.00 0.00 0.00 47 1009.0
20260508043031 47 281 0.0 0.0 0.00 0.00 0.00 48 1009.1
20260508041529 48 281 0.0 0.0 0.00 0.00 0.00 47 1009.1
20260508040029 48 281 0.0 0.0 0.00 0.00 0.00 46 1009.2
20260508034540 48 281 0.0 0.0 0.00 0.00 0.00 45 1009.3
20260508033028 48 281 0.0 0.0 0.00 0.00 0.00 45 1009.4
20260508031531 49 281 0.0 0.0 0.00 0.00 0.00 41 1009.4
20260508030026 49 281 0.0 0.0 0.00 0.00 0.00 43 1009.5
20260508024547 49 281 0.0 0.0 0.00 0.00 0.00 43 1009.5
20260508023024 50 281 0.0 0.0 0.00 0.00 0.00 39 1009.6
20260508021524 50 281 0.0 0.0 0.00 0.00 0.00 39 1009.5
20260508020057 52 281 0.0 0.0 0.00 0.00 0.00 36 1009.3
20260508014556 53 281 0.0 0.0 0.00 0.00 0.00 35 1009.2
20260508013023 54 281 0.0 0.0 0.00 0.00 0.00 33 1009.2
20260508011526 55 281 0.0 0.0 0.00 0.00 0.00 32 1008.9
20260508010020 56 279 0.0 0.0 0.00 0.00 0.00 31 1009.0
20260508004536 57 288 0.0 0.0 0.00 0.00 0.00 29 1008.9
20260508003018 57 276 0.0 0.0 0.00 0.00 0.00 29 1009.0
20260508001530 57 278 0.0 0.0 0.00 0.00 0.00 28 1009.0
20260508000015 57 263 0.0 0.0 0.00 0.00 0.00 29 1009.1
20260507234514 57 282 0.0 0.0 0.00 0.00 0.00 28 1009.1
20260507233012 57 259 0.0 0.0 0.00 0.00 0.00 27 1009.2
20260507231512 57 309 0.0 0.0 0.00 0.00 0.00 26 1009.5
20260507230008 57 295 0.0 0.0 0.00 0.00 0.00 26 1009.6
20260507224512 57 290 0.0 0.0 0.00 0.00 0.00 26 1009.7
20260507223007 57 311 0.0 0.0 0.00 0.00 0.00 28 1009.7
20260507221507 57 263 0.0 0.0 0.00 0.00 0.00 26 1009.6
20260507220034 57 360 0.0 0.0 0.00 0.00 0.00 28 1009.6
20260507214535 56 281 0.0 0.0 0.00 0.00 0.00 29 1009.8
20260507213059 56 275 0.0 0.0 0.00 0.00 0.00 27 1010.0
20260507211604 56 284 0.0 0.0 0.00 0.00 0.00 28 1010.0
20260507210108 56 282 0.0 0.0 0.00 0.00 0.00 26 1010.2
20260507204554 55 258 0.0 0.0 0.00 0.00 0.00 28 1010.5
20260507203115 55 257 0.0 0.0 0.00 0.00 0.00 26 1010.7
20260507201551 55 244 0.0 0.0 0.00 0.00 0.00 28 1010.8
20260507200017 54 316 0.0 0.0 0.00 0.00 0.00 27 1010.9
20260507194522 54 290 0.0 0.0 0.00 0.00 0.00 27 1011.0
20260507193014 53 203 0.0 0.0 0.00 0.00 0.00 28 1011.1
20260507191512 53 306 0.0 0.0 0.00 0.00 0.00 28 1011.1
20260507190013 53 319 0.0 0.0 0.00 0.00 0.00 29 1011.3
20260507184506 53 235 0.0 0.0 0.00 0.00 0.00 29 1011.5
20260507183002 51 303 0.0 0.0 0.00 0.00 0.00 31 1011.5
20260507181601 51 296 0.0 0.0 0.00 0.00 0.00 30 1011.8
20260507180059 51 186 0.0 0.0 0.00 0.00 0.00 31 1011.8
20260507174603 50 294 0.0 0.0 0.00 0.00 0.00 30 1012.0
20260507173049 50 315 0.0 0.0 0.00 0.00 0.00 29 1012.1
20260507171527 50 327 0.0 0.0 0.00 0.00 0.00 30 1012.3
20260507170022 50 316 0.0 0.0 0.00 0.00 0.00 32 1012.3
20260507164519 50 73 0.0 0.0 0.00 0.00 0.00 34 1012.7
20260507163016 49 360 0.0 0.0 0.00 0.00 0.00 35 1012.6
20260507161513 48 325 0.0 0.0 0.00 0.00 0.00 35 1012.8
20260507160010 47 302 0.0 0.0 0.00 0.00 0.00 38 1012.8
20260507154509 48 254 0.0 0.0 0.00 0.00 0.00 37 1012.9
20260507153007 47 26 0.0 0.0 0.00 0.00 0.00 40 1012.9
20260507151505 47 340 0.0 0.0 0.00 0.00 0.00 39 1013.0
20260507150001 47 174 0.0 0.0 0.00 0.00 0.00 43 1013.0
20260507144618 45 360 0.0 0.0 0.00 0.00 0.00 43 1013.1
20260507143102 45 249 0.0 0.0 0.00 0.00 0.00 43 1013.1
20260507141601 44 265 0.0 0.0 0.00 0.00 0.00 46 1013.1
20260507140049 44 314 0.0 0.0 0.00 0.00 0.00 47 1013.2
20260507134551 43 244 0.0 0.0 0.00 0.00 0.00 52 1013.3
20260507133111 42 244 0.0 0.0 0.00 0.00 0.00 55 1013.2
20260507131545 42 254 0.0 0.0 0.00 0.00 0.00 58 1013.4
20260507130045 41 256 0.0 0.0 0.00 0.00 0.00 60 1013.5
20260507124530 40 288 0.0 0.0 0.00 0.00 0.00 63 1013.4
20260507123035 39 288 0.0 0.0 0.00 0.00 0.00 65 1013.5
20260507121523 37 288 0.0 0.0 0.00 0.00 0.00 69 1013.5
20260507120021 36 288 0.0 0.0 0.00 0.00 0.00 72 1013.4
20260507114518 35 290 0.0 0.0 0.00 0.00 0.00 74 1013.4
20260507113017 34 290 0.0 0.0 0.00 0.00 0.00 73 1013.4
20260507111515 34 290 0.0 0.0 0.00 0.00 0.00 71 1013.5
20260507110016 34 291 0.0 0.0 0.00 0.00 0.00 71 1013.4
20260507104545 34 291 0.0 0.0 0.00 0.00 0.00 72 1013.4
20260507103049 34 291 0.0 0.0 0.00 0.00 0.00 73 1013.4
20260507101546 34 291 0.0 0.0 0.00 0.00 0.00 74 1013.5
20260507100040 34 291 0.0 0.0 0.00 0.00 0.00 73 1013.6
20260507094553 34 291 0.0 0.0 0.00 0.00 0.00 73 1013.6
20260507093040 35 291 0.0 0.0 0.00 0.00 0.00 71 1013.6
20260507091536 35 292 0.0 0.0 0.00 0.00 0.00 72 1013.8
20260507090036 35 292 0.0 0.0 0.00 0.00 0.00 72 1013.8
20260507084539 34 293 0.0 0.0 0.00 0.00 0.00 72 1013.7